Regional Weather Roundup
Issued by NWS

Home | Current Version | Previous Version | Text Only | Print | Product List | Glossary Off
Versions: 1 2 3 4 5 6 7 8 9 10 11 12 13 14 15 16 17 18 19 20 21 22 23 24 25 26 27 28 29 30 31 32 33 34 35 36 37 38 39 40 41 42 43 44 45 46 47 48 49 50

688
ASUS45 KSLC 270110
RWRUT

UTAH REGIONAL WEATHER ROUNDUP
NATIONAL WEATHER SERVICE SALT LAKE CITY UT
700 PM MDT FRI MAY 26 2017

UTZ001>011-023>025-270200-

NORTHERN UTAH

CITY           SKY/WX    TMP DP  RH WIND       PRES   REMARKS
BRIGHAM CITY   MOSUNNY   62  32  32 N13       29.96S
HILL AFB       MOSUNNY   62  33  33 N13G20    29.95S
LOGAN          PTSUNNY   60  39  45 N9        29.96R
OGDEN          MOSUNNY   62  34  35 N14G21    29.94R
SALT LAKE CITY PTSUNNY   67  31  26 NW17      29.94R
TOOELE VALLEY  MOSUNNY   61  37  41 N3        29.97R
WENDOVER       PTSUNNY   67  28  23 N15G24    29.95R
HEBER CITY     PTSUNNY   59  32  36 NW10      29.92R
WEST JORDAN    MOSUNNY   61  41  47 NW14      29.96R

$$

UTZ011>015-024>027-270200-

CENTRAL/NORTHEAST UTAH

CITY           SKY/WX    TMP DP  RH WIND       PRES   REMARKS
PROVO AIRPORT  PTSUNNY   64  36  34 NW16G24   29.92R
MOAB/CANYONLAN MOSUNNY   81  17   9 SW23G30   29.72R
DELTA          PTSUNNY   68  28  22 N16G28    29.89R
PRICE          SUNNY     71  29  21 NW20G28   29.83R
ROOSEVELT      SUNNY     70  28  21 NW23G32   29.82R
VERNAL         CLOUDY    68  33  27 NE23G33   29.81R

$$

UTZ013>016-019>022-027-270200-

SOUTHERN UTAH

CITY           SKY/WX    TMP DP  RH WIND       PRES   REMARKS
BRYCE CANYON   SUNNY     64  19  17 SW20G28   30.00S
CEDAR CITY     SUNNY     73  21  14 S15G24    29.89S
MILFORD        PTSUNNY   72  27  18 NE13G22   29.85R
ST GEORGE      MOCLDY    86  24  10 W15G24    29.77S
HANKSVILLE     MOSUNNY   81  23  12 SW10G17   29.74S
BLANDING       SUNNY     75  13   9 SW15G22   29.95R

$$

REGIONAL REPORTS     COLORADO/ARIZONA

CITY           SKY/WX    TMP DP  RH WIND       PRES   REMARKS
CRAIG, CO      CLOUDY    54  38  54 N16G30    29.93R
GRAND JUNCTION SUNNY     80  12   7 W18       29.74R
RIFLE, CO      CLOUDY    76   8   7 S14       29.78S
MONTROSE, CO   SUNNY     75  11   8 SW22      29.85S
CORTEZ, CO     SUNNY     75   7   7 SW18G30   29.90S
COLORADO CITY    N/A     79  23  12 SW16G23   29.93R
PAGE, AZ       SUNNY     84  16   8 W8G20     29.79R
GRAND CANYON   SUNNY     69  17  13 SW21G29   30.02S
KINGMAN, AZ    SUNNY     81  22  11 SW17G26   29.88S
FLAGSTAFF, AZ  SUNNY     65  16  15 SW23G29   30.06F

$$

REGIONAL REPORTS    NEVADA/IDAHO/WYOMING

CITY           SKY/WX    TMP DP  RH WIND       PRES   REMARKS
LAS VEGAS, NV  SUNNY     89  22   8 S13G22    29.71S
ELY, NY        CLOUDY    63  22  20 NW14      29.97R
ELKO, NV       MOSUNNY   61  28  28 NW12      30.01R
POCATELLO, ID  CLOUDY    47  42  83 SW3       30.03S
BURLEY, ID     PTSUNNY   52  42  69 S3        30.01R
FORT BRIDGER,    N/A     56  24  28 W23G31    30.01R
EVANSTON, WY   SUNNY     53  27  36 W21       30.00R
ROCK SPRINGS,  CLOUDY    53  28  38 W16G25    29.95R
KEMMERER, WY     N/A     46  32  57 W17G24    30.00R

$$




USA.gov is the U.S. government's official web portal to all federal, state and local government web resources and services.